Regional Weather Roundup
Issued by NWS

Home | Current Version | Previous Version | Graphics & Text | Print | Product List | Glossary On
Versions: 1 2 3 4 5 6 7 8 9 10 11 12 13 14 15 16 17 18 19 20 21 22 23 24 25 26 27 28 29 30 31 32 33 34 35 36 37 38 39 40 41 42 43 44 45 46 47 48 49 50
000
ASUS45 KCYS 260210
RWRWY

WYOMING REGIONAL WEATHER ROUNDUP
NATIONAL WEATHER SERVICE CHEYENNE WY
800 PM MDT SUN JUN 25 2017

NOTE:  "FAIR" INDICATES FEW OR NO CLOUDS BELOW 12,000 FEET
WITH NO SIGNIFICANT WEATHER AND/OR OBSTRUCTIONS TO VISIBILITY.

WYZ001-260300-
YELLOWSTONE NATIONAL PARK

CITY           SKY/WX    TMP DP  RH WIND       PRES   REMARKS
LK YELLOWSTONE   N/A     68  29  23 VRB3      30.42R
W YELLOWSTONE  NOT AVBL

$$
WYZ002>013-054>058-071-098>099-260300-
NORTHERN WYOMING

CITY           SKY/WX    TMP DP  RH WIND       PRES   REMARKS
JACKSON        SUNNY     73  39  29 NW12      30.31S
CODY           FAIR      73  35  25 N13       30.28S
GREYBULL       FAIR      80  30  16 N13       30.18S
WORLAND        FAIR      78  39  24 N5        30.20S
SHERIDAN       FAIR      71  41  33 N7        30.25S
BUFFALO        FAIR      69  41  36 N7        30.31R
GILLETTE       FAIR      72  33  24 N10       30.25S
NEWCASTLE      FAIR      72  28  20 N8        30.25R

$$
WYZ014>020-022>026-101>103-260300-
CENTRAL WYOMING

CITY           SKY/WX    TMP DP  RH WIND       PRES   REMARKS
BIG PINEY      FAIR      76  35  22 N9        30.33S
PINEDALE       FAIR      72  34  25 NW9       30.35S
DUBOIS         FAIR      68  36  30 S10G16    30.35S
LANDER         FAIR      74  39  28 NE7       30.24S
RIVERTON       FAIR      75  33  21 NE14      30.26R
CASPER         FAIR      74  28  18 NE10      30.26S
DOUGLAS        FAIR      73  35  25 NE7       30.26S

$$
WYZ021-027>030-104>119-260300-
SOUTHERN WYOMING

CITY           SKY/WX    TMP DP  RH WIND       PRES   REMARKS
EVANSTON       FAIR      77  33  20 N8        30.33S
KEMMERER         N/A     73  32  21 W8        30.36S
FORT BRIDGER   FAIR      78  26  14 N7        30.35F
ROCK SPRINGS   FAIR      76  25  15 N7        30.31S
DIXON          FAIR      77  24  14 N7        30.32S
RAWLINS        FAIR      72  20  14 NE9       30.34S
SARATOGA       FAIR      72  27  18 N8        30.36S
LARAMIE        FAIR      65  44  46 E10       30.36S
CHEYENNE       FAIR      65  47  52 SE8       30.33S
TORRINGTON     FAIR      72  43  35 S5        30.21S
PINE BLUFFS    FAIR      64  50  59 SE7       30.29S

$$



USA.gov is the U.S. government's official web portal to all federal, state and local government web resources and services.